Weather in Abramovo

Russia / Smolensk Oblast     54°58′13″N   34°50′20″E
temp.,
°C
wind,
m/s
gust,
m/s
humid.,
%
clouds,
%
prec.,
mm/h
press.,
hPa
HPBL,
m
8 march, mon
mon800:00−6w5138663 0.0 998655
03:00−6wsw5129073 0.1 998658
06:00−7w51289100 0.1 999905
09:00−7nw51084100 0.1 1001887
12:00−6nw4781100 0.1 1004824
15:00−5nw3577100 0.1 1006998
18:00−6nw3792100 0.3 1008512
21:00−9nnw399296 0.4 1011303
9 march, tue
tue900:00−12nnw379569 0.0 1013199
03:00−14nnw259665 0.0 1015131
06:00−16nnw259773 0.0 1016106
09:00−14nnw359255 0.0 1018260
12:00−11nnw358183 0.0 1018606
15:00−9nnw367679 0.0 1019894
18:00−11nnw2489100 0.1 1020130
21:00−14nw129396 0.1 102320
10 march, wed
wed1000:00−16n129543 0.0 102420
03:00−16ne119668 0.0 102520
06:00−15e2395100 0.1 1025168
09:00−15e3594100 0.8 1026303
12:00−13e3487100 0.4 1026410
15:00−11e3476100 0.4 1027600
18:00−13ene258595 0.0 1027245
21:00−18e239254 0.0 102938
11 march, thu
thu1100:00−19ese23940 0.0 103042
03:00−21ese22944 0.0 103124
06:00−22ese239310 0.0 103247
09:00−19se258428 0.0 1032218
12:00−13se36732 0.0 1030397
15:00−10sse47661 0.0 1029557
18:00−13se37830 0.0 1028320
21:00−16se39900 0.0 1028264
12 march, fri
fri1200:00−17sse399537 0.0 1026257
03:00−17se499769 0.0 1024273
06:00−15se51392100 0.0 1020384
09:00−10sse71583100 0.0 1017654
12:00−6sse91690100 0.5 1013988
15:00−4sse91791100 2.6 10091425
18:00−3sse81693100 2.4 10051254
21:00−3sse61395100 4.4 1004926